Date String (YYYY-MM-DD hh:mm:ss) UTC,Instrument flags,Ambient pressure (hPa),Sample flow (lpm),Bypass flow (lpm),Sample temperature (°C),Ambient temperature (°C),ASC tube jacket temperature (°C),LED temperature (°C),Box temperature (°C),Sample RH (%),Span deviation,Mass concentration (μg/m³),Mass concentration (μg/m³),Mass concentration (μg/m³)
DateTimeUTC,F1_M11,P_M11,Q1_M11,Q2_M11,T1_M11,T2_M11,T3_M11,T4_M11,T5_M11,U1_M11,ZSPAN_M11,X0_M11,X2_M11,X1_M11
2021-10-17 01:00:00,,0833.6,5.00,0.00,30.1,29.3,00.0,39.1,31.9,09.8,0000.0,0012.16,0004.64,0003.85
2021-10-17 01:01:00,,0833.6,4.99,0.00,30.1,29.3,00.0,39.1,31.9,09.8,0000.0,0012.23,0004.65,0003.87
2021-10-17 01:02:00,,0833.6,4.99,0.00,30.1,29.3,00.0,39.1,31.9,09.8,0000.0,0012.37,0004.67,0003.87
2021-10-17 01:03:00,,0833.6,5.01,0.00,30.1,29.3,00.0,39.1,31.9,09.9,0000.0,0012.74,0004.69,0003.87
2021-10-17 01:04:00,,0833.6,5.00,0.00,30.1,29.3,00.0,39.1,31.9,09.9,0000.0,0013.53,0004.71,0003.88
2021-10-17 01:05:00,,0833.6,4.99,0.00,30.2,29.3,00.0,39.1,31.9,10.0,0000.0,0012.91,0004.76,0003.88
2021-10-17 01:06:00,,0833.6,5.00,0.00,30.2,29.3,00.0,39.2,32.0,09.9,0000.0,0012.81,0004.74,0003.87
2021-10-17 01:07:00,,0833.6,5.00,0.00,30.2,29.3,00.0,39.2,32.0,09.9,0000.0,0013.76,0004.74,0003.87
2021-10-17 01:08:00,,0833.6,5.01,0.00,30.2,29.4,00.0,39.2,32.0,10.0,0000.0,0014.10,0004.73,0003.84
2021-10-17 01:09:00,,0833.7,5.00,0.00,30.2,29.4,00.0,39.2,32.0,09.9,0000.0,0013.40,0004.72,0003.81
2021-10-17 01:10:00,,0833.6,5.00,0.00,30.2,29.4,00.0,39.2,32.0,09.8,0000.0,0012.72,0004.67,0003.78
2021-10-17 01:11:00,,0833.6,5.00,0.00,30.3,29.4,00.0,39.2,32.0,09.8,0000.0,0012.41,0004.63,0003.74
2021-10-17 01:12:00,,0833.7,5.01,0.00,30.2,29.4,00.0,39.3,32.0,09.8,0000.0,0012.97,0004.57,0003.69
2021-10-17 01:13:00,,0833.7,5.00,0.00,30.3,29.4,00.0,39.3,32.0,09.8,0000.0,0013.03,0004.54,0003.66
2021-10-17 01:14:00,,0833.7,5.00,0.00,30.3,29.4,00.0,39.3,32.0,09.8,0000.0,0013.03,0004.54,0003.64
2021-10-17 01:15:00,,0833.7,5.01,0.00,30.3,29.4,00.0,39.3,32.0,09.8,0000.0,0012.45,0004.51,0003.60
2021-10-17 01:16:00,,0833.7,5.00,0.00,30.3,29.5,00.0,39.3,32.0,09.8,0000.0,0011.74,0004.44,0003.56
2021-10-17 01:17:00,,0833.7,5.00,0.00,30.3,29.5,00.0,39.3,32.0,09.7,0000.0,0011.53,0004.41,0003.52
2021-10-17 01:18:00,,0833.7,5.00,0.00,30.3,29.5,00.0,39.3,32.0,09.7,0000.0,0010.75,0004.36,0003.49
2021-10-17 01:19:00,,0833.7,5.00,0.00,30.3,29.5,00.0,39.3,32.0,09.7,0000.0,0010.94,0004.37,0003.48
2021-10-17 01:20:00,,0833.7,5.00,0.00,30.3,29.1,00.0,39.3,31.9,09.7,0000.0,0011.09,0004.38,0003.48
2021-10-17 01:21:00,,0833.7,5.00,0.00,30.2,26.8,00.0,39.3,31.4,09.8,0000.0,0011.37,0004.42,0003.48
2021-10-17 01:22:00,,0833.7,5.01,0.00,30.0,26.0,00.0,39.3,31.2,09.9,0000.0,0011.61,0004.49,0003.48
2021-10-17 01:23:00,,0833.7,4.99,0.00,29.9,26.3,00.0,39.2,31.1,09.9,0000.0,0011.14,0004.53,0003.49
2021-10-17 01:24:00,,0833.7,5.00,0.00,29.8,26.7,00.0,39.1,31.2,10.0,0000.0,0011.04,0004.53,0003.48
2021-10-17 01:25:00,,0833.7,4.98,0.00,29.8,27.1,00.0,39.1,31.2,10.0,0000.0,0010.99,0004.51,0003.47
2021-10-17 01:26:00,,0833.7,5.02,0.00,29.8,27.5,00.0,39.0,31.3,10.0,0000.0,0010.69,0004.49,0003.48
2021-10-17 01:27:00,,0833.7,5.00,0.00,29.8,27.8,00.0,39.0,31.4,10.0,0000.0,0010.70,0004.48,0003.49
2021-10-17 01:28:00,,0833.7,4.99,0.00,29.7,28.0,00.0,39.0,31.4,10.0,0000.0,0010.58,0004.48,0003.50
2021-10-17 01:29:00,,0833.7,5.00,0.00,29.8,28.2,00.0,39.0,31.4,10.0,0000.0,0010.36,0004.47,0003.51
2021-10-17 01:30:00,,0833.7,5.00,0.00,29.8,28.3,00.0,39.0,31.5,10.0,0000.0,0009.55,0004.39,0003.51
2021-10-17 01:31:00,,0833.7,5.00,0.00,29.8,28.5,00.0,39.0,31.5,10.0,0000.0,0010.45,0004.38,0003.50
2021-10-17 01:32:00,,0833.7,5.00,0.00,29.8,28.6,00.0,39.0,31.5,10.0,0000.0,0010.46,0004.35,0003.50
2021-10-17 01:33:00,,0833.7,5.00,0.00,29.8,28.6,00.0,39.0,31.5,10.0,0000.0,0010.41,0004.31,0003.49
2021-10-17 01:34:00,,0833.7,5.00,0.00,29.8,28.7,00.0,38.9,31.5,10.0,0000.0,0010.48,0004.28,0003.50
2021-10-17 01:35:00,,0833.7,5.00,0.00,29.8,28.8,00.0,38.9,31.5,09.9,0000.0,0010.34,0004.26,0003.49
2021-10-17 01:36:00,,0833.7,5.00,0.00,29.8,28.8,00.0,39.0,31.6,09.9,0000.0,0010.51,0004.25,0003.49
2021-10-17 01:37:00,,0833.7,5.00,0.00,29.8,28.8,00.0,38.9,31.5,09.9,0000.0,0010.40,0004.24,0003.47
2021-10-17 01:38:00,,0833.7,4.99,0.00,29.9,28.8,00.0,38.9,31.6,09.8,0000.0,0010.42,0004.19,0003.46
2021-10-17 01:39:00,,0833.7,5.01,0.00,29.9,28.8,00.0,38.9,31.6,09.8,0000.0,0010.57,0004.14,0003.44
2021-10-17 01:40:00,,0833.7,4.99,0.00,29.9,28.8,00.0,39.0,31.6,09.8,0000.0,0011.07,0004.14,0003.45
2021-10-17 01:41:00,,0833.7,5.00,0.00,29.9,28.9,00.0,39.0,31.6,09.8,0000.0,0011.22,0004.17,0003.44
2021-10-17 01:42:00,,0833.7,5.00,0.00,29.9,28.9,00.0,39.0,31.6,09.8,0000.0,0010.45,0004.22,0003.44
2021-10-17 01:43:00,,0833.7,5.00,0.00,29.9,28.9,00.0,39.0,31.6,09.8,0000.0,0010.18,0004.22,0003.43
2021-10-17 01:44:00,,0833.7,5.01,0.00,29.9,28.9,00.0,39.0,31.7,09.8,0000.0,0010.41,0004.21,0003.43
2021-10-17 01:45:00,,0833.7,4.99,0.00,30.0,28.9,00.0,39.0,31.7,09.8,0000.0,0010.29,0004.19,0003.41
2021-10-17 01:46:00,,0833.7,5.01,0.00,30.0,28.9,00.0,39.0,31.7,09.8,0000.0,0010.69,0004.21,0003.40
2021-10-17 01:47:00,,0833.7,4.99,0.00,30.0,28.9,00.0,39.0,31.7,09.7,0000.0,0010.87,0004.23,0003.40
2021-10-17 01:48:00,,0833.7,5.01,0.00,30.0,28.9,00.0,39.0,31.7,09.7,0000.0,0011.68,0004.25,0003.41
2021-10-17 01:49:00,,0833.7,5.00,0.00,30.0,28.9,00.0,39.0,31.7,09.7,0000.0,0011.84,0004.27,0003.43
2021-10-17 01:50:00,,0833.7,5.00,0.00,30.0,28.9,00.0,39.0,31.7,09.7,0000.0,0011.78,0004.34,0003.43
2021-10-17 01:51:00,,0833.7,4.99,0.00,30.0,29.0,00.0,39.1,31.7,09.7,0000.0,0011.44,0004.38,0003.43
2021-10-17 01:52:00,,0833.7,4.99,0.00,30.0,29.0,00.0,39.1,31.7,09.7,0000.0,0011.57,0004.38,0003.43
2021-10-17 01:53:00,,0833.7,4.99,0.00,30.0,29.0,00.0,39.1,31.7,09.8,0000.0,0011.47,0004.31,0003.42
2021-10-17 01:54:00,,0833.7,5.00,0.00,30.0,29.0,00.0,39.1,31.8,09.8,0000.0,0011.33,0004.29,0003.42
2021-10-17 01:55:00,,0833.7,5.01,0.00,30.0,29.0,00.0,39.1,31.7,09.7,0000.0,0010.84,0004.26,0003.42
2021-10-17 01:56:00,,0833.7,5.01,0.00,30.0,29.0,00.0,39.1,31.8,09.7,0000.0,0010.66,0004.25,0003.43
2021-10-17 01:57:00,,0833.7,5.00,0.00,30.0,29.0,00.0,39.1,31.7,09.7,0000.0,0010.29,0004.23,0003.43
2021-10-17 01:58:00,,0833.7,4.98,0.00,30.0,29.0,00.0,39.1,31.7,09.7,0000.0,0009.83,0004.25,0003.45
2021-10-17 01:59:00,,0833.7,5.00,0.00,30.0,29.0,00.0,39.1,31.7,09.8,0000.0,0009.15,0004.26,0003.45
